| time (UTC) | temp F | wind direction | speed MPH | gust MPH | rain 1hr in | rain 24hr in | rain mn in | humidity % | barometer mb |
| 20260904005306 | 82 | 15 | 2.0 | 2.0 | 0.00 | 0.08 | 0.00 | 29 | 1013.0 |
| 20260904004805 | 71 | 296 | 2.0 | 5.0 | 0.00 | 0.08 | 0.00 | 27 | 1011.9 |
| 20260904004305 | 82 | 217 | 2.0 | 6.0 | 0.00 | 0.08 | 0.00 | 25 | 1012.7 |
| 20260904002805 | 82 | 227 | 3.0 | 5.0 | 0.00 | 0.11 | 0.00 | 22 | 1013.2 |
| 20260904002306 | 82 | 211 | 2.0 | 5.0 | 0.00 | 0.11 | 0.00 | 24 | 1012.3 |
| 20260904001305 | 82 | 178 | 3.0 | 7.0 | 0.00 | 0.11 | 0.00 | 21 | 1013.7 |
| 20260904000804 | 82 | 203 | 4.0 | 9.0 | 0.00 | 0.11 | 0.00 | 22 | 1011.7 |
| 20260904000305 | 82 | 274 | 3.0 | 8.0 | 0.00 | 0.11 | 0.00 | 22 | 1018.2 |
| 20260903235305 | 82 | 299 | 5.0 | 7.0 | 0.00 | 0.11 | 0.00 | 21 | 1012.9 |
| 20260903234805 | 77 | 246 | 2.0 | 6.0 | 0.00 | 0.11 | 0.00 | 22 | 1011.7 |
| 20260903234305 | 82 | 210 | 4.0 | 12.0 | 0.00 | 0.11 | 0.00 | 21 | 1011.7 |
| 20260903233805 | 82 | 166 | 5.0 | 9.0 | 0.00 | 0.11 | 0.00 | 20 | 1013.3 |
| 20260903233305 | 82 | 209 | 2.0 | 8.0 | 0.00 | 0.11 | 0.00 | 21 | 1011.5 |
| 20260903232805 | 82 | 179 | 0.0 | 12.0 | 0.00 | 0.11 | 0.00 | 21 | 1011.4 |
| 20260903232306 | 82 | 159 | 4.0 | 9.0 | 0.00 | 0.11 | 0.00 | 22 | 1015.2 |
| 20260903231305 | 82 | 207 | 3.0 | 13.0 | 0.00 | 0.11 | 0.00 | 23 | 1014.8 |
| 20260903230806 | 82 | 234 | 4.0 | 6.0 | 0.00 | 0.11 | 0.00 | 21 | 1012.8 |
| 20260903225805 | 82 | 244 | 3.0 | 10.0 | 0.00 | 0.11 | 0.00 | 21 | 1011.6 |
| 20260903225307 | 82 | 194 | 7.0 | 13.0 | 0.00 | 0.11 | 0.00 | 21 | 1011.5 |
| 20260903224805 | 82 | 159 | 5.0 | 15.0 | 0.00 | 0.11 | 0.00 | 22 | 1011.4 |
| 20260903223806 | 82 | 154 | 8.0 | 14.0 | 0.00 | 0.11 | 0.00 | 22 | 1011.4 |
| 20260903223305 | 82 | 266 | 4.0 | 10.0 | 0.00 | 0.11 | 0.00 | 20 | 1011.7 |
| 20260903222804 | 82 | 175 | 3.0 | 14.0 | 0.00 | 0.11 | 0.00 | 20 | 1016.6 |
| 20260903222306 | 82 | 166 | 6.0 | 18.0 | 0.00 | 0.11 | 0.00 | 21 | 1011.5 |
| 20260903221805 | 82 | 155 | 7.0 | 18.0 | 0.00 | 0.11 | 0.00 | 21 | 1011.5 |
| 20260903221305 | 82 | 149 | 6.0 | 16.0 | 0.00 | 0.11 | 0.00 | 23 | 1011.7 |
| 20260903220804 | 82 | 160 | 5.0 | 17.0 | 0.00 | 0.11 | 0.00 | 22 | 1011.8 |
| 20260903220305 | 82 | 167 | 7.0 | 16.0 | 0.00 | 0.11 | 0.00 | 22 | 1015.1 |
| 20260903215805 | 81 | 166 | 5.0 | 13.0 | 0.00 | 0.11 | 0.00 | 20 | 1011.7 |
| 20260903214804 | 81 | 187 | 6.0 | 14.0 | 0.00 | 0.11 | 0.00 | 21 | 1011.8 |
| 20260903214305 | 81 | 154 | 5.0 | 14.0 | 0.00 | 0.11 | 0.00 | 21 | 1011.7 |
| 20260903213804 | 81 | 223 | 3.0 | 21.0 | 0.00 | 0.11 | 0.00 | 21 | 1011.8 |
| 20260903213305 | 81 | 156 | 8.0 | 21.0 | 0.00 | 0.11 | 0.00 | 21 | 1011.8 |
| 20260903212805 | 81 | 226 | 6.0 | 13.0 | 0.00 | 0.11 | 0.00 | 22 | 1015.5 |
| 20260903212306 | 81 | 191 | 5.0 | 13.0 | 0.00 | 0.11 | 0.00 | 21 | 1011.9 |
| 20260903211805 | 77 | 170 | 6.0 | 13.0 | 0.00 | 0.11 | 0.00 | 23 | 1012.1 |
| 20260903211304 | 81 | 177 | 7.0 | 15.0 | 0.00 | 0.11 | 0.00 | 21 | 1012.0 |
| 20260903210805 | 81 | 200 | 3.0 | 10.0 | 0.00 | 0.11 | 0.00 | 21 | 1012.0 |
| 20260903210304 | 81 | 236 | 6.0 | 12.0 | 0.00 | 0.11 | 0.00 | 21 | 1012.1 |
| 20260903205805 | 79 | 167 | 6.0 | 14.0 | 0.00 | 0.12 | 0.00 | 21 | 1012.3 |
| 20260903204304 | 75 | 211 | 5.0 | 9.0 | 0.00 | 0.12 | 0.00 | 23 | 1012.2 |
| 20260903203304 | 79 | 194 | 3.0 | 13.0 | 0.00 | 0.12 | 0.00 | 23 | 1012.5 |
| 20260903202804 | 79 | 194 | 3.0 | 13.0 | 0.00 | 0.12 | 0.00 | 24 | 1012.5 |
| 20260903202306 | 79 | 190 | 6.0 | 15.0 | 0.00 | 0.12 | 0.00 | 23 | 1012.5 |
| 20260903201804 | 79 | 180 | 5.0 | 14.0 | 0.00 | 0.12 | 0.00 | 23 | 1012.4 |
| 20260903201305 | 79 | 238 | 2.0 | 9.0 | 0.00 | 0.12 | 0.00 | 22 | 1012.5 |
| 20260903200806 | 79 | 148 | 7.0 | 9.0 | 0.00 | 0.12 | 0.00 | 23 | 1016.6 |
| 20260903200305 | 79 | 206 | 4.0 | 8.0 | 0.00 | 0.12 | 0.00 | 23 | 1012.3 |
| 20260903195805 | 76 | 239 | 4.0 | 13.0 | 0.00 | 0.12 | 0.00 | 24 | 1012.5 |
| 20260903195306 | 76 | 168 | 3.0 | 13.0 | 0.00 | 0.12 | 0.00 | 24 | 1012.6 |
| 20260903194805 | 76 | 268 | 4.0 | 21.0 | 0.00 | 0.12 | 0.00 | 25 | 1012.6 |
| 20260903194304 | 76 | 177 | 5.0 | 15.0 | 0.00 | 0.12 | 0.00 | 26 | 1021.5 |
| 20260903193805 | 73 | 149 | 3.0 | 14.0 | 0.00 | 0.12 | 0.00 | 27 | 1012.7 |
| 20260903192306 | 76 | 191 | 9.0 | 16.0 | 0.00 | 0.12 | 0.00 | 28 | 1012.7 |
| 20260903191805 | 76 | 102 | 2.0 | 10.0 | 0.00 | 0.12 | 0.00 | 28 | 1012.6 |
| 20260903191305 | 76 | 73 | 4.0 | 10.0 | 0.00 | 0.12 | 0.00 | 28 | 1012.7 |
| 20260903185805 | 74 | 56 | 4.0 | 13.0 | 0.00 | 0.12 | 0.00 | 30 | 1013.1 |
| 20260903184804 | 74 | 163 | 5.0 | 15.0 | 0.00 | 0.12 | 0.00 | 30 | 1022.2 |
| 20260903183804 | 74 | 168 | 8.0 | 17.0 | 0.00 | 0.12 | 0.00 | 31 | 1013.2 |
| 20260903183305 | 74 | 149 | 12.0 | 17.0 | 0.00 | 0.12 | 0.00 | 29 | 1013.1 |
| 20260903182306 | 74 | 190 | 3.0 | 12.0 | 0.00 | 0.12 | 0.00 | 31 | 1013.3 |
| 20260903181304 | 74 | 206 | 5.0 | 8.0 | 0.00 | 0.12 | 0.00 | 33 | 1013.5 |
| 20260903180804 | 74 | 209 | 3.0 | 8.0 | 0.00 | 0.12 | 0.00 | 34 | 1013.5 |
| 20260903180304 | 74 | 196 | 5.0 | 8.0 | 0.00 | 0.12 | 0.00 | 33 | 1013.5 |
| 20260903175804 | 70 | 175 | 5.0 | 14.0 | 0.00 | 0.12 | 0.00 | 36 | 1013.5 |
| 20260903175306 | 71 | 231 | 3.0 | 7.0 | 0.00 | 0.12 | 0.00 | 35 | 1022.5 |
| 20260903174804 | 70 | 232 | 4.0 | 12.0 | 0.00 | 0.12 | 0.00 | 36 | 1013.5 |
| 20260903174304 | 70 | 199 | 4.0 | 10.0 | 0.00 | 0.12 | 0.00 | 34 | 1023.2 |
| 20260903173804 | 70 | 168 | 6.0 | 12.0 | 0.00 | 0.12 | 0.00 | 36 | 1013.7 |
| 20260903172804 | 70 | 168 | 2.0 | 15.0 | 0.00 | 0.12 | 0.00 | 33 | 1013.7 |
| 20260903172306 | 70 | 161 | 5.0 | 13.0 | 0.00 | 0.12 | 0.00 | 37 | 1018.4 |
| 20260903171805 | 70 | 171 | 3.0 | 14.0 | 0.00 | 0.12 | 0.00 | 37 | 1013.5 |
| 20260903171305 | 70 | 64 | 5.0 | 17.0 | 0.00 | 0.12 | 0.00 | 35 | 1017.7 |
| 20260903170804 | 70 | 185 | 3.0 | 13.0 | 0.00 | 0.12 | 0.00 | 40 | 1013.8 |
| 20260903170305 | 70 | 154 | 9.0 | 13.0 | 0.00 | 0.12 | 0.00 | 40 | 1021.9 |
| 20260903165805 | 67 | 178 | 5.0 | 14.0 | 0.00 | 0.12 | 0.00 | 39 | 1013.7 |
| 20260903165305 | 66 | 211 | 6.0 | 14.0 | 0.00 | 0.12 | 0.00 | 61 | 1022.4 |
| 20260903164805 | 67 | 158 | 6.0 | 15.0 | 0.00 | 0.12 | 0.00 | 40 | 1013.8 |
| 20260903164304 | 66 | 174 | 5.0 | 12.0 | 0.00 | 0.12 | 0.00 | 62 | 1023.0 |
| 20260903163805 | 66 | 134 | 3.0 | 14.0 | 0.00 | 0.12 | 0.00 | 41 | 1013.7 |
| 20260903163304 | 66 | 151 | 7.0 | 13.0 | 0.00 | 0.12 | 0.00 | 51 | 1018.3 |
| 20260903162805 | 66 | 146 | 7.0 | 12.0 | 0.00 | 0.12 | 0.00 | 41 | 1013.7 |
| 20260903161805 | 66 | 135 | 7.0 | 13.0 | 0.00 | 0.12 | 0.00 | 42 | 1013.6 |
| 20260903161305 | 65 | 166 | 4.0 | 10.0 | 0.00 | 0.12 | 0.00 | 46 | 1013.7 |
| 20260903160805 | 64 | 141 | 5.0 | 12.0 | 0.00 | 0.12 | 0.00 | 61 | 1021.7 |
| 20260903155804 | 62 | 140 | 6.0 | 9.0 | 0.00 | 0.12 | 0.00 | 65 | 1021.2 |
| 20260903155306 | 61 | 151 | 4.0 | 12.0 | 0.00 | 0.12 | 0.00 | 53 | 1013.8 |
| 20260903154804 | 60 | 150 | 6.0 | 12.0 | 0.00 | 0.12 | 0.00 | 70 | 1023.7 |
| 20260903154304 | 60 | 202 | 6.0 | 13.0 | 0.00 | 0.12 | 0.00 | 56 | 1013.8 |
| 20260903153804 | 56 | 140 | 8.0 | 12.0 | 0.00 | 0.12 | 0.00 | 71 | 1024.4 |
| 20260903153305 | 58 | 141 | 5.0 | 12.0 | 0.00 | 0.12 | 0.00 | 59 | 1013.6 |
| 20260903152804 | 57 | 163 | 6.0 | 13.0 | 0.00 | 0.12 | 0.00 | 59 | 1013.8 |
| 20260903152306 | 57 | 167 | 5.0 | 13.0 | 0.00 | 0.12 | 0.00 | 60 | 1013.7 |
| 20260903151803 | 56 | 158 | 4.0 | 9.0 | 0.00 | 0.12 | 0.00 | 60 | 1013.8 |
| 20260903151304 | 55 | 164 | 5.0 | 9.0 | 0.00 | 0.12 | 0.00 | 63 | 1013.9 |
| 20260903150804 | 53 | 142 | 5.0 | 9.0 | 0.00 | 0.12 | 0.00 | 63 | 1014.0 |
| 20260903145805 | 52 | 151 | 5.0 | 9.0 | 0.00 | 0.12 | 0.00 | 66 | 1014.1 |
| 20260903145306 | 51 | 140 | 4.0 | 7.0 | 0.00 | 0.12 | 0.00 | 68 | 1014.2 |
| 20260903144804 | 50 | 175 | 2.0 | 6.0 | 0.00 | 0.12 | 0.00 | 69 | 1014.2 |
| 20260903144304 | 50 | 167 | 3.0 | 8.0 | 0.00 | 0.12 | 0.00 | 70 | 1014.2 |
| 20260903143804 | 50 | 158 | 5.0 | 8.0 | 0.00 | 0.12 | 0.00 | 71 | 1014.2 |
| 20260903143305 | 50 | 151 | 3.0 | 7.0 | 0.00 | 0.12 | 0.00 | 85 | 1014.0 |
| 20260903142306 | 49 | 114 | 1.0 | 6.0 | 0.00 | 0.12 | 0.00 | 74 | 1014.2 |
| 20260903141804 | 49 | 192 | 2.0 | 3.0 | 0.00 | 0.12 | 0.00 | 74 | 1014.3 |
| 20260903141304 | 48 | 155 | 3.0 | 3.0 | 0.00 | 0.12 | 0.00 | 76 | 1014.3 |
| 20260903140804 | 48 | 159 | 2.0 | 3.0 | 0.00 | 0.12 | 0.00 | 78 | 1023.4 |
| 20260903135306 | 46 | 88 | 1.0 | 5.0 | 0.00 | 0.12 | 0.00 | 90 | 1014.3 |
| 20260903134804 | 46 | 170 | 2.0 | 5.0 | 0.00 | 0.12 | 0.00 | 81 | 1014.4 |
| 20260903134304 | 45 | 132 | 1.0 | 5.0 | 0.00 | 0.12 | 0.00 | 91 | 1014.3 |
| 20260903133803 | 44 | 287 | 0.0 | 1.0 | 0.00 | 0.12 | 0.00 | 84 | 1014.2 |
| 20260903133304 | 45 | 287 | 0.0 | 2.0 | 0.00 | 0.12 | 0.00 | 85 | 1014.1 |
| 20260903132306 | 44 | 128 | 1.0 | 2.0 | 0.00 | 0.12 | 0.00 | 85 | 1023.2 |
| 20260903131804 | 44 | 208 | 0.0 | 1.0 | 0.00 | 0.12 | 0.00 | 84 | 1014.2 |
| 20260903131304 | 44 | 208 | 0.0 | 1.0 | 0.00 | 0.12 | 0.00 | 85 | 1021.9 |
| 20260903130804 | 44 | 208 | 0.0 | 1.0 | 0.00 | 0.12 | 0.00 | 84 | 1014.0 |
| 20260903130304 | 44 | 103 | 0.0 | 0.0 | 0.00 | 0.12 | 0.00 | 82 | 1022.1 |
| 20260903125804 | 44 | 103 | 0.0 | 0.0 | 0.00 | 0.12 | 0.00 | 87 | 1013.9 |
| 20260903124804 | 44 | 103 | 0.0 | 0.0 | 0.00 | 0.12 | 0.00 | 86 | 1013.8 |
| 20260903124304 | 44 | 103 | 0.0 | 1.0 | 0.00 | 0.12 | 0.00 | 82 | 1013.8 |
| 20260903122804 | 48 | 53 | 5.0 | 6.0 | 0.00 | 0.12 | 0.00 | 92 | 1013.7 |
| 20260903122305 | 48 | 53 | 5.0 | 6.0 | 0.00 | 0.12 | 0.00 | 92 | 1018.5 |
| 20260903121804 | 48 | 53 | 5.0 | 6.0 | 0.00 | 0.12 | 0.00 | 92 | 1013.5 |
| 20260903121304 | 48 | 53 | 5.0 | 6.0 | 0.00 | 0.12 | 0.00 | 92 | 1013.5 |
| 20260903120304 | 45 | 53 | 5.0 | 6.0 | 0.00 | 0.12 | 0.00 | 90 | 1013.6 |
| 20260903115803 | 45 | 53 | 5.0 | 6.0 | 0.00 | 0.12 | 0.00 | 79 | 1013.6 |
| 20260903115306 | 45 | 53 | 5.0 | 6.0 | 0.00 | 0.12 | 0.00 | 90 | 1013.5 |
| 20260903114804 | 45 | 53 | 5.0 | 6.0 | 0.00 | 0.12 | 0.00 | 79 | 1013.6 |
| 20260903114303 | 45 | 53 | 5.0 | 6.0 | 0.00 | 0.12 | 0.00 | 79 | 1013.6 |
| 20260903113804 | 46 | 53 | 5.0 | 6.0 | 0.00 | 0.12 | 0.00 | 79 | 1019.1 |
| 20260903113304 | 45 | 53 | 5.0 | 6.0 | 0.00 | 0.12 | 0.00 | 86 | 1013.5 |
| 20260903112804 | 45 | 53 | 5.0 | 6.0 | 0.00 | 0.12 | 0.00 | 79 | 1022.9 |
| 20260903112305 | 45 | 53 | 5.0 | 6.0 | 0.00 | 0.12 | 0.00 | 79 | 1013.3 |
| 20260903111803 | 45 | 53 | 5.0 | 6.0 | 0.00 | 0.12 | 0.00 | 79 | 1013.6 |
| 20260903111304 | 45 | 53 | 5.0 | 6.0 | 0.00 | 0.12 | 0.00 | 79 | 1013.5 |
| 20260903110804 | 49 | 31 | 5.0 | 5.0 | 0.00 | 0.12 | 0.00 | 92 | 1013.5 |
| 20260903110304 | 49 | 31 | 5.0 | 5.0 | 0.00 | 0.12 | 0.00 | 92 | 1013.5 |
| 20260903105804 | 51 | 31 | 5.0 | 5.0 | 0.00 | 0.12 | 0.00 | 89 | 1013.7 |
| 20260903105306 | 51 | 31 | 5.0 | 5.0 | 0.00 | 0.12 | 0.00 | 89 | 1022.1 |
| 20260903104806 | 46 | 31 | 5.0 | 5.0 | 0.00 | 0.12 | 0.00 | 78 | 1013.6 |
| 20260903104304 | 46 | 31 | 5.0 | 5.0 | 0.00 | 0.12 | 0.00 | 78 | 1018.1 |
| 20260903103804 | 46 | 31 | 5.0 | 5.0 | 0.00 | 0.12 | 0.00 | 78 | 1013.3 |
| 20260903103303 | 46 | 31 | 5.0 | 5.0 | 0.00 | 0.12 | 0.00 | 78 | 1021.5 |
| 20260903102306 | 46 | 31 | 5.0 | 5.0 | 0.00 | 0.12 | 0.00 | 78 | 1022.2 |
| 20260903101804 | 46 | 31 | 5.0 | 5.0 | 0.00 | 0.12 | 0.00 | 78 | 1013.4 |
| 20260903101304 | 46 | 31 | 5.0 | 5.0 | 0.00 | 0.12 | 0.00 | 88 | 1013.7 |
| 20260903100804 | 46 | 31 | 5.0 | 5.0 | 0.00 | 0.12 | 0.00 | 78 | 1013.8 |
| 20260903100304 | 46 | 31 | 5.0 | 5.0 | 0.00 | 0.12 | 0.00 | 89 | 1018.1 |
| 20260903095803 | 46 | 31 | 5.0 | 5.0 | 0.00 | 0.12 | 0.00 | 79 | 1013.6 |
| 20260903094803 | 46 | 51 | 3.0 | 7.0 | 0.00 | 0.12 | 0.00 | 79 | 1013.7 |
| 20260903094303 | 47 | 42 | 5.0 | 7.0 | 0.00 | 0.12 | 0.00 | 76 | 1013.6 |
| 20260903083804 | 48 | 28 | 4.0 | 7.0 | 0.00 | 0.12 | 0.00 | 76 | 1013.4 |
| 20260903083303 | 49 | 61 | 5.0 | 7.0 | 0.00 | 0.12 | 0.00 | 76 | 1013.7 |
| 20260903082804 | 48 | 71 | 5.0 | 10.0 | 0.00 | 0.12 | 0.00 | 75 | 1013.8 |
| 20260903082306 | 49 | 59 | 7.0 | 9.0 | 0.00 | 0.12 | 0.00 | 76 | 1013.8 |
| 20260903081805 | 48 | 36 | 7.0 | 10.0 | 0.00 | 0.12 | 0.00 | 74 | 1013.7 |
| 20260903081306 | 48 | 75 | 5.0 | 9.0 | 0.00 | 0.12 | 0.00 | 74 | 1022.5 |
| 20260903080806 | 49 | 62 | 3.0 | 8.0 | 0.00 | 0.12 | 0.00 | 75 | 1014.0 |
| 20260903080305 | 48 | 88 | 3.0 | 9.0 | 0.00 | 0.12 | 0.00 | 74 | 1017.8 |
| 20260903075805 | 48 | 59 | 6.0 | 9.0 | 0.00 | 0.12 | 0.00 | 76 | 1013.8 |
| 20260903074805 | 48 | 66 | 5.0 | 7.0 | 0.00 | 0.12 | 0.00 | 75 | 1013.8 |
| 20260903074306 | 48 | 29 | 2.0 | 6.0 | 0.00 | 0.12 | 0.00 | 73 | 1017.0 |
| 20260903073305 | 48 | 62 | 4.0 | 8.0 | 0.00 | 0.12 | 0.00 | 82 | 1013.8 |
| 20260903072805 | 48 | 76 | 4.0 | 10.0 | 0.00 | 0.12 | 0.00 | 73 | 1013.8 |
| 20260903071806 | 49 | 88 | 2.0 | 6.0 | 0.00 | 0.12 | 0.00 | 72 | 1013.9 |
| 20260903070805 | 49 | 56 | 3.0 | 7.0 | 0.00 | 0.12 | 0.00 | 76 | 1017.7 |
| 20260903070305 | 49 | 47 | 5.0 | 6.0 | 0.00 | 0.12 | 0.00 | 73 | 1013.8 |
| 20260903065805 | 49 | 69 | 3.0 | 7.0 | 0.00 | 0.12 | 0.00 | 79 | 1019.6 |
| 20260903065306 | 50 | 64 | 5.0 | 7.0 | 0.00 | 0.12 | 0.00 | 72 | 1014.0 |
| 20260903064805 | 51 | 51 | 3.0 | 7.0 | 0.00 | 0.12 | 0.00 | 69 | 1014.0 |
| 20260903063806 | 50 | 65 | 5.0 | 8.0 | 0.00 | 0.12 | 0.00 | 68 | 1014.0 |
| 20260903063306 | 51 | 56 | 6.0 | 14.0 | 0.00 | 0.12 | 0.00 | 68 | 1013.9 |
| 20260903062306 | 51 | 64 | 6.0 | 10.0 | 0.00 | 0.12 | 0.00 | 80 | 1021.6 |
| 20260903061306 | 51 | 28 | 6.0 | 12.0 | 0.00 | 0.12 | 0.00 | 66 | 1013.9 |
| 20260903060805 | 51 | 58 | 5.0 | 7.0 | 0.00 | 0.12 | 0.00 | 69 | 1013.9 |
| 20260903060305 | 51 | 48 | 5.0 | 9.0 | 0.00 | 0.12 | 0.00 | 68 | 1013.9 |
| 20260903055806 | 52 | 80 | 5.0 | 9.0 | 0.00 | 0.12 | 0.00 | 66 | 1014.0 |
| 20260903054805 | 52 | 59 | 5.0 | 13.0 | 0.00 | 0.12 | 0.00 | 65 | 1013.9 |
| 20260903054305 | 51 | 67 | 9.0 | 13.0 | 0.00 | 0.12 | 0.00 | 67 | 1013.9 |
| 20260903053805 | 51 | 100 | 3.0 | 5.0 | 0.00 | 0.12 | 0.00 | 67 | 1013.9 |
| 20260903053305 | 51 | 29 | 2.0 | 6.0 | 0.00 | 0.12 | 0.00 | 68 | 1013.8 |
| 20260903052805 | 51 | 89 | 4.0 | 9.0 | 0.00 | 0.12 | 0.00 | 67 | 1013.8 |
| 20260903052307 | 51 | 77 | 6.0 | 9.0 | 0.00 | 0.12 | 0.00 | 66 | 1014.0 |
| 20260903051805 | 51 | 86 | 3.0 | 12.0 | 0.00 | 0.12 | 0.00 | 66 | 1013.9 |
| 20260903050805 | 51 | 82 | 7.0 | 12.0 | 0.00 | 0.12 | 0.00 | 66 | 1013.6 |
| 20260903045806 | 51 | 80 | 9.0 | 13.0 | 0.00 | 0.12 | 0.12 | 66 | 1013.8 |
| 20260903045306 | 52 | 74 | 5.0 | 7.0 | 0.00 | 0.12 | 0.12 | 67 | 1014.0 |
| 20260903044805 | 53 | 80 | 5.0 | 7.0 | 0.00 | 0.12 | 0.12 | 79 | 1022.3 |
| 20260903044305 | 53 | 101 | 3.0 | 5.0 | 0.00 | 0.12 | 0.12 | 65 | 1013.9 |
| 20260903043805 | 54 | 62 | 3.0 | 5.0 | 0.00 | 0.12 | 0.12 | 78 | 1022.0 |
| 20260903043305 | 53 | 81 | 3.0 | 8.0 | 0.00 | 0.12 | 0.12 | 65 | 1014.0 |
| 20260903042306 | 55 | 75 | 2.0 | 7.0 | 0.00 | 0.12 | 0.12 | 64 | 1013.9 |
| 20260903041805 | 54 | 60 | 5.0 | 7.0 | 0.00 | 0.12 | 0.12 | 64 | 1013.8 |
| 20260903041305 | 54 | 46 | 4.0 | 8.0 | 0.00 | 0.12 | 0.12 | 64 | 1013.9 |
| 20260903040307 | 55 | 261 | 0.0 | 3.0 | 0.00 | 0.12 | 0.12 | 64 | 1013.9 |
| 20260903035805 | 56 | 178 | 2.0 | 6.0 | 0.00 | 0.12 | 0.12 | 63 | 1013.9 |
| 20260903035306 | 55 | 87 | 3.0 | 6.0 | 0.00 | 0.12 | 0.12 | 62 | 1013.7 |
| 20260903034805 | 56 | 79 | 3.0 | 6.0 | 0.00 | 0.12 | 0.12 | 61 | 1014.2 |
| 20260903034305 | 55 | 67 | 4.0 | 9.0 | 0.00 | 0.12 | 0.12 | 61 | 1013.7 |
| 20260903033804 | 56 | 74 | 6.0 | 9.0 | 0.00 | 0.12 | 0.12 | 61 | 1013.7 |
| 20260903033305 | 56 | 61 | 5.0 | 10.0 | 0.00 | 0.12 | 0.12 | 67 | 1017.8 |
| 20260903032805 | 57 | 48 | 3.0 | 6.0 | 0.00 | 0.12 | 0.12 | 60 | 1013.9 |
| 20260903032306 | 56 | 114 | 1.0 | 7.0 | 0.00 | 0.12 | 0.12 | 66 | 1017.3 |
| 20260903031305 | 58 | 64 | 5.0 | 8.0 | 0.00 | 0.12 | 0.12 | 69 | 1019.2 |
| 20260903030806 | 57 | 63 | 7.0 | 9.0 | 0.00 | 0.12 | 0.12 | 58 | 1013.7 |
| 20260903030305 | 58 | 74 | 3.0 | 8.0 | 0.00 | 0.12 | 0.12 | 58 | 1013.4 |
| 20260903025306 | 59 | 63 | 5.0 | 9.0 | 0.05 | 0.12 | 0.12 | 56 | 1013.5 |
| 20260903024305 | 58 | 67 | 6.0 | 10.0 | 0.05 | 0.12 | 0.12 | 57 | 1013.4 |
| 20260903023804 | 58 | 74 | 4.0 | 8.0 | 0.05 | 0.12 | 0.12 | 56 | 1013.2 |
| 20260903023305 | 59 | 73 | 3.0 | 7.0 | 0.05 | 0.12 | 0.12 | 56 | 1013.2 |
| 20260903022306 | 60 | 172 | 1.0 | 5.0 | 0.05 | 0.12 | 0.12 | 56 | 1013.1 |
| 20260903021305 | 61 | 334 | 1.0 | 3.0 | 0.05 | 0.12 | 0.12 | 53 | 1013.1 |
| 20260903020805 | 61 | 125 | 2.0 | 5.0 | 0.05 | 0.12 | 0.12 | 52 | 1012.9 |
| 20260903020304 | 61 | 63 | 1.0 | 6.0 | 0.05 | 0.12 | 0.12 | 52 | 1013.1 |
| 20260903015805 | 62 | 150 | 2.0 | 6.0 | 0.03 | 0.07 | 0.07 | 51 | 1012.9 |
| 20260903015306 | 62 | 101 | 2.0 | 5.0 | 0.03 | 0.07 | 0.07 | 47 | 1013.0 |
| 20260903014805 | 63 | 192 | 0.0 | 3.0 | 0.03 | 0.07 | 0.07 | 47 | 1013.1 |
| 20260903014305 | 63 | 75 | 2.0 | 6.0 | 0.03 | 0.07 | 0.07 | 45 | 1013.0 |
| 20260903013805 | 64 | 74 | 3.0 | 6.0 | 0.03 | 0.07 | 0.07 | 67 | 1013.1 |
| 20260903013305 | 64 | 85 | 3.0 | 6.0 | 0.03 | 0.07 | 0.07 | 43 | 1020.8 |
| 20260903012805 | 64 | 235 | 2.0 | 6.0 | 0.06 | 0.07 | 0.07 | 67 | 1013.1 |
| 20260903012306 | 65 | 86 | 2.0 | 5.0 | 0.06 | 0.07 | 0.07 | 42 | 1021.7 |
| 20260903011806 | 65 | 285 | 1.0 | 3.0 | 0.06 | 0.07 | 0.07 | 55 | 1013.2 |
| 20260903011306 | 65 | 138 | 2.0 | 8.0 | 0.06 | 0.07 | 0.07 | 41 | 1021.1 |
| 20260903010805 | 66 | 162 | 3.0 | 8.0 | 0.06 | 0.07 | 0.07 | 52 | 1013.3 |
| 20260903010305 | 65 | 184 | 2.0 | 9.0 | 0.06 | 0.07 | 0.07 | 40 | 1020.5 |
| 20260903005805 | 68 | 163 | 5.0 | 12.0 | 0.03 | 0.04 | 0.04 | 40 | 1013.1 |